Wind_Speed
8 3 4 20 23 31 32 38 40 40 41 39 41 43 43 35 33 31 28 16 26 31 31 29 28 25 21 17 16 13 11 9 11
10 8 7 5 25 34 36 32 39 41 40 40 40 43 45 42 35 36 34 27 21 29 29 27 28 29 25 20 19 15 14 12 10
13 8 12 8 13 20 33 38 38 38 39 40 39 39 41 43 43 40 38 32 28 19 26 20 20 33 29 24 20 18 17 14 12
25 21 24 16 14 15 14 22 32 39 37 39 38 41 37 38 39 42 40 35 33 25 23 19 16 31 30 26 24 20 21 18 15
27 27 22 20 21 15 12 22 31 39 39 42 43 41 39 38 39 41 41 41 36 34 29 26 19 26 29 28 27 24 22 22 20
19 26 24 20 13 12 29 18 19 37 41 41 41 40 40 37 37 40 41 42 42 40 36 32 31 26 31 30 28 25 25 24 23
10 6 16 21 20 22 38 43 29 38 39 40 41 41 40 40 39 38 41 39 42 41 38 37 36 33 29 30 29 28 26 26 26
15 18 7 12 19 13 6 26 14 30 39 41 40 41 41 40 39 37 35 37 37 44 39 42 38 36 33 30 31 30 29 28 28
14 15 19 21 13 17 13 21 31 15 36 41 43 39 40 39 37 38 38 36 37 40 42 38 42 41 38 35 32 33 33 32 32
13 9 8 7 19 15 8 10 21 17 25 29 40 42 39 41 40 39 40 37 36 36 41 38 37 40 38 38 38 35 35 33 33
16 15 12 13 13 18 12 3 19 22 26 10 14 28 38 41 41 41 38 38 37 36 35 38 38 36 36 36 38 38 37 36 35
15 16 13 16 20 24 25 29 16 15 14 24 24 25 34 38 42 39 39 41 39 39 35 36 38 36 37 37 37 37 40 38 39
17 23 24 25 24 21 19 24 26 18 19 20 29 30 38 38 40 40 41 40 41 37 39 37 33 36 36 37 38 37 38 41 42
18 20 26 24 21 19 20 20 28 15 31 26 29 26 29 34 41 43 41 40 38 39 36 33 35 34 35 34 36 38 40 39 43
12 16 22 22 22 23 25 27 24 16 11 20 18 23 21 30 35 38 36 39 38 36 36 34 33 33 30 34 35 38 39 41 43
9 15 18 19 21 21 22 27 28 26 29 31 30 20 22 34 34 39 36 36 36 34 34 33 31 30 31 31 32 34 39 42 43
7 13 15 15 14 14 20 24 27 28 28 31 29 25 21 26 34 33 34 34 36 35 35 33 31 30 30 30 30 30 32 39 41
4 16 17 15 9 9 14 23 25 28 29 30 28 25 21 24 31 35 32 34 34 36 37 37 34 33 31 28 28 36 34 36 41
9 9 10 14 14 14 17 20 24 26 30 28 27 24 21 18 25 28 31 30 29 34 34 36 40 36 32 32 32 31 36 34 38
9 5 10 14 13 16 15 17 22 28 31 30 27 23 22 22 19 24 26 26 28 19 29 35 37 38 38 30 36 35 33 37 41
Wind_Direction
189 179 295 177 178 188 185 183 184 185 189 188 190 197 202 202 207 212 210 193 192 193 197 200 200 204 203 198 195 198 203 215 219
167 135 89 0 184 190 192 187 189 189 190 192 192 197 202 204 203 212 217 213 194 201 202 209 203 205 204 200 196 195 203 212 221
145 145 89 327 308 215 197 194 191 192 192 193 195 197 202 205 203 207 216 218 213 211 206 205 211 209 204 202 201 196 204 210 213
166 152 145 200 224 248 208 217 198 193 191 193 196 197 200 204 208 208 211 216 215 217 211 216 211 206 203 205 201 201 208 217 219
179 170 177 178 180 198 240 215 219 194 193 193 196 199 199 202 206 209 211 212 216 214 215 215 204 200 204 207 206 206 213 219 225
187 180 173 178 164 168 234 220 246 207 195 195 196 198 199 202 204 207 210 213 212 217 220 218 218 204 201 202 207 210 215 223 230
20 271 175 177 180 185 205 221 219 213 203 198 195 197 199 202 205 206 208 211 213 213 216 218 222 221 214 209 210 216 220 222 229
46 20 209 229 191 205 239 189 207 208 206 200 198 198 200 203 204 207 208 210 213 215 215 217 217 222 219 219 221 220 225 227 227
48 42 34 358 249 249 224 217 210 233 212 202 199 199 201 203 204 205 207 208 208 214 214 218 218 218 218 218 220 226 231 231 227
38 40 36 357 14 47 54 308 285 238 269 210 202 201 199 201 202 205 206 206 206 208 213 213 214 217 219 223 225 224 227 230 232
18 3 23 8 15 17 357 237 208 195 227 197 288 216 199 198 199 202 204 205 206 208 208 212 217 219 218 221 225 226 224 226 228
13 1 356 9 6 351 350 340 336 230 188 197 266 274 212 199 198 199 201 203 205 205 206 209 213 217 219 220 224 226 226 224 227
7 353 358 353 359 343 358 337 318 297 257 233 254 264 219 201 197 200 201 202 204 205 207 212 212 217 221 222 224 226 225 225 227
2 350 347 346 345 345 353 346 340 317 257 258 258 273 218 203 199 201 203 201 202 203 206 209 214 217 221 224 226 227 229 227 226
350 347 340 348 349 353 352 344 340 334 335 326 289 256 245 215 204 202 201 197 199 202 204 208 211 216 221 224 226 228 228 230 228
341 338 335 340 352 349 357 347 341 336 339 339 328 313 238 229 213 204 200 195 196 197 200 205 210 212 218 223 224 227 228 232 231
323 326 321 320 332 353 358 343 341 334 338 336 330 319 262 227 210 203 199 195 196 197 200 205 208 212 217 221 223 223 224 227 229
310 308 298 313 327 336 8 347 338 336 339 344 334 326 295 231 209 206 200 198 196 202 206 205 207 213 215 216 219 221 220 220 224
301 285 313 328 336 355 10 351 330 336 348 349 339 334 335 251 215 207 201 199 202 207 210 214 216 215 215 218 226 228 223 226 232
275 308 356 340 345 353 2 351 329 342 347 350 345 337 334 334 231 201 199 199 204 202 209 213 217 218 220 222 225 232 228 229 230
Height
739 744 744 746 755 765 771 780 786 791 796 801 806 811 816 821 824 827 830 834 836 839 842 845 848 851 854 857 860 863 865 866 868
738 738 744 749 748 757 765 775 781 785 791 796 800 805 810 815 820 822 825 830 834 836 839 842 845 847 851 854 857 859 862 864 866
729 735 733 754 764 762 762 766 775 783 787 791 796 801 806 810 813 818 821 826 829 832 836 839 841 844 847 851 854 856 859 862 864
711 723 729 754 766 762 763 768 771 773 779 786 792 796 800 805 809 813 817 821 824 827 831 834 837 840 845 848 851 854 857 859 861
707 718 726 732 734 747 751 755 762 764 770 777 781 787 793 798 803 807 811 814 819 823 826 830 834 837 841 845 848 850 853 856 858
716 713 725 729 729 725 734 744 752 757 759 766 775 781 786 792 796 799 803 807 811 816 821 826 830 833 835 839 843 846 849 852 854
721 725 721 724 725 711 714 727 739 747 753 759 767 772 778 784 788 792 796 801 805 810 814 819 823 827 831 834 837 841 844 847 850
733 733 728 730 713 720 725 726 731 735 743 750 757 765 770 774 781 788 793 796 799 804 809 812 817 821 825 828 832 835 838 841 844
741 743 745 747 737 728 723 721 716 729 737 742 749 755 762 770 776 780 784 789 793 796 802 806 810 814 818 822 824 828 832 836 838
747 749 752 754 737 723 729 730 720 723 742 743 744 746 753 759 766 771 775 782 786 789 793 800 802 806 811 814 817 821 825 829 832
749 747 743 743 746 747 747 742 735 729 735 734 748 748 744 749 755 761 768 774 778 783 787 791 796 799 803 807 810 814 819 823 826
755 750 747 747 745 740 735 734 724 721 715 725 738 741 742 740 745 752 758 764 768 774 780 783 787 791 795 798 802 806 811 816 819
755 755 748 749 742 748 744 738 734 730 728 723 723 728 732 732 737 743 747 754 760 766 770 774 780 784 787 790 794 798 802 808 811
763 759 752 756 752 745 741 745 739 730 724 719 721 725 724 726 727 732 738 746 752 757 763 768 772 775 780 784 786 789 794 798 802
765 765 760 757 750 739 738 737 737 740 730 725 724 717 717 719 721 727 732 736 743 749 754 759 763 768 772 774 777 780 783 787 791
764 764 762 756 750 746 743 740 735 727 719 715 710 712 711 713 718 719 723 728 734 740 745 749 754 758 762 764 768 770 773 775 779
764 762 762 762 760 752 743 747 739 733 725 718 712 707 704 705 708 712 715 719 724 729 734 738 744 748 750 755 759 761 763 766 770
766 764 762 760 756 755 745 744 743 738 728 719 711 703 699 699 700 703 707 710 713 718 722 726 731 735 742 746 748 747 751 754 758
766 765 761 756 751 746 739 745 748 742 730 721 713 703 697 694 694 696 699 704 706 711 715 720 724 729 732 736 738 742 746 748 749
762 761 760 756 750 746 745 749 749 739 731 721 712 705 698 691 690 690 694 697 700 703 708 712 717 723 727 730 733 735 738 739 741